Time,TemperatureF,DewpointF,PressureIn,WindDirection,WindDirectionDegrees,WindSpeedMPH,WindSpeedGustMPH,Humidity,HourlyPrecipIn,Conditions,Clouds,dailyrainin,SoftwareType,DateUTC
2013-11-13 00:01:00,27.9,22.9,30.53,WNW,301,7.0,10.0,81,0.00,,OVC OVC///CB,0.03,WUHU216DAVISVP2,2013-11-13 05:01:00,
2013-11-13 00:04:00,27.8,22.8,30.53,WNW,298,2.0,10.0,81,0.00,,OVC OVC///CB,0.03,WUHU216DAVISVP2,2013-11-13 05:04:00,
2013-11-13 00:09:00,27.7,23.0,30.53,West,278,2.0,10.0,82,0.00,,OVC OVC///CB,0.00,WUHU216DAVISVP2,2013-11-13 05:09:00,
2013-11-13 00:14:00,27.7,23.0,30.53,WSW,249,2.0,10.0,82,0.00,,OVC OVC///CB,0.00,WUHU216DAVISVP2,2013-11-13 05:14:00,
2013-11-13 00:19:00,27.7,23.0,30.53,WNW,295,4.0,10.0,82,0.00,,OVC OVC///CB,0.00,WUHU216DAVISVP2,2013-11-13 05:19:00,
2013-11-13 00:24:00,27.7,22.7,30.53,WNW,287,5.0,11.0,81,0.00,,OVC OVC///CB,0.00,WUHU216DAVISVP2,2013-11-13 05:24:00,
2013-11-13 00:29:00,27.8,22.8,30.53,West,266,1.0,11.0,81,0.00,,OVC OVC///CB,0.00,WUHU216DAVISVP2,2013-11-13 05:29:00,
2013-11-13 00:34:00,27.8,22.8,30.53,West,279,3.0,10.0,81,0.00,,OVC OVC///CB,0.00,WUHU216DAVISVP2,2013-11-13 05:34:00,
2013-11-13 00:39:00,27.8,22.8,30.53,WSW,249,5.0,10.0,81,0.00,,OVC OVC///CB,0.00,WUHU216DAVISVP2,2013-11-13 05:39:00,
2013-11-13 00:44:00,27.8,22.8,30.53,WSW,247,2.0,6.0,81,0.00,,OVC OVC///CB,0.00,WUHU216DAVISVP2,2013-11-13 05:44:00,
2013-11-13 00:49:00,27.8,22.8,30.53,West,259,1.0,6.0,81,0.00,,OVC OVC///CB,0.00,WUHU216DAVISVP2,2013-11-13 05:49:00,
2013-11-13 00:54:00,27.8,22.8,30.53,WNW,290,3.0,5.0,81,0.00,,OVC OVC///CB,0.00,WUHU216DAVISVP2,2013-11-13 05:54:00,
2013-11-13 00:59:00,27.8,22.6,30.53,WNW,295,3.0,9.0,80,0.00,,OVC OVC///CB,0.00,WUHU216DAVISVP2,2013-11-13 05:59:00,
2013-11-13 01:04:00,27.8,22.6,30.53,WNW,284,3.0,9.0,80,0.00,,OVC OVC///CB,0.00,WUHU216DAVISVP2,2013-11-13 06:04:00,
2013-11-13 01:09:00,27.7,22.5,30.53,WNW,285,0.0,9.0,80,0.00,,OVC OVC///CB,0.00,WUHU216DAVISVP2,2013-11-13 06:09:00,
2013-11-13 01:14:00,27.7,22.7,30.53,WNW,296,4.0,8.0,81,0.00,,OVC OVC///CB,0.00,WUHU216DAVISVP2,2013-11-13 06:14:00,
2013-11-13 01:19:00,27.7,22.7,30.53,West,278,4.0,9.0,81,0.00,,OVC OVC///CB,0.00,WUHU216DAVISVP2,2013-11-13 06:19:00,
2013-11-13 01:24:00,27.6,22.6,30.53,WNW,298,1.0,10.0,81,0.00,,OVC OVC///CB,0.00,WUHU216DAVISVP2,2013-11-13 06:24:00,
2013-11-13 01:29:00,27.5,22.5,30.53,WNW,297,2.0,10.0,81,0.00,,OVC OVC///CB,0.00,WUHU216DAVISVP2,2013-11-13 06:29:00,
2013-11-13 01:34:00,27.5,22.8,30.53,WNW,295,4.0,10.0,82,0.00,,OVC OVC///CB,0.00,WUHU216DAVISVP2,2013-11-13 06:34:00,
2013-11-13 01:39:00,27.4,22.7,30.53,WNW,290,1.0,7.0,82,0.00,,OVC OVC///CB,0.00,WUHU216DAVISVP2,2013-11-13 06:39:00,
2013-11-13 01:44:00,27.3,22.6,30.53,West,269,3.0,10.0,82,0.00,,OVC OVC///CB,0.00,WUHU216DAVISVP2,2013-11-13 06:44:00,
2013-11-13 01:49:00,27.3,22.6,30.54,NW,326,3.0,10.0,82,0.00,,OVC OVC///CB,0.00,WUHU216DAVISVP2,2013-11-13 06:49:00,
2013-11-13 01:54:00,27.2,22.8,30.53,West,281,6.0,11.0,83,0.00,,OVC OVC///CB,0.00,WUHU216DAVISVP2,2013-11-13 06:54:00,
2013-11-13 01:59:00,27.1,22.7,30.54,West,278,3.0,11.0,83,0.00,,OVC OVC///CB,0.00,WUHU216DAVISVP2,2013-11-13 06:59:00,
2013-11-13 02:04:00,27.0,22.9,30.54,West,274,5.0,11.0,84,0.00,,OVC OVC///CB,0.00,WUHU216DAVISVP2,2013-11-13 07:04:00,
2013-11-13 02:09:00,27.0,22.6,30.54,NW,308,3.0,11.0,83,0.00,,OVC OVC///CB,0.00,WUHU216DAVISVP2,2013-11-13 07:09:00,
2013-11-13 02:14:00,27.0,22.9,30.54,WNW,290,6.0,9.0,84,0.00,,OVC OVC///CB,0.00,WUHU216DAVISVP2,2013-11-13 07:14:00,
2013-11-13 02:19:00,27.0,22.6,30.54,WNW,293,3.0,9.0,83,0.00,,OVC OVC///CB,0.00,WUHU216DAVISVP2,2013-11-13 07:19:00,
2013-11-13 02:24:00,27.0,22.6,30.54,WSW,252,1.0,9.0,83,0.00,,OVC OVC///CB,0.00,WUHU216DAVISVP2,2013-11-13 07:24:00,
2013-11-13 02:29:00,27.0,22.6,30.54,WNW,283,2.0,9.0,83,0.00,,OVC OVC///CB,0.00,WUHU216DAVISVP2,2013-11-13 07:29:00,
2013-11-13 02:34:00,27.0,22.6,30.54,WNW,285,6.0,7.0,83,0.00,,OVC OVC///CB,0.00,WUHU216DAVISVP2,2013-11-13 07:34:00,
2013-11-13 02:39:00,26.9,22.5,30.54,WNW,284,4.0,8.0,83,0.00,,OVC OVC///CB,0.00,WUHU216DAVISVP2,2013-11-13 07:39:00,
2013-11-13 02:44:00,26.9,22.5,30.54,West,274,5.0,8.0,83,0.00,,OVC OVC///CB,0.00,WUHU216DAVISVP2,2013-11-13 07:44:00,
2013-11-13 02:49:00,26.9,22.5,30.54,WNW,286,4.0,10.0,83,0.00,,OVC OVC///CB,0.00,WUHU216DAVISVP2,2013-11-13 07:49:00,
2013-11-13 02:54:00,26.8,22.4,30.54,WNW,285,4.0,10.0,83,0.00,,OVC OVC///CB,0.00,WUHU216DAVISVP2,2013-11-13 07:54:00,
2013-11-13 02:59:00,26.7,22.3,30.54,WNW,293,2.0,10.0,83,0.00,,OVC OVC///CB,0.00,WUHU216DAVISVP2,2013-11-13 07:59:00,
2013-11-13 03:04:00,26.7,22.6,30.54,West,280,6.0,10.0,84,0.00,,OVC OVC///CB,0.00,WUHU216DAVISVP2,2013-11-13 08:04:00,
2013-11-13 03:09:00,26.7,22.6,30.54,WNW,291,2.0,9.0,84,0.00,,OVC OVC///CB,0.00,WUHU216DAVISVP2,2013-11-13 08:09:00,
2013-11-13 03:14:00,26.7,22.6,30.54,WNW,293,2.0,9.0,84,0.00,,OVC OVC///CB,0.00,WUHU216DAVISVP2,2013-11-13 08:14:00,
2013-11-13 03:19:00,26.6,22.5,30.54,SW,225,1.0,7.0,84,0.00,,OVC OVC///CB,0.00,WUHU216DAVISVP2,2013-11-13 08:19:00,
2013-11-13 03:24:00,26.6,22.5,30.55,West,278,1.0,7.0,84,0.00,,OVC OVC///CB,0.00,WUHU216DAVISVP2,2013-11-13 08:24:00,
2013-11-13 03:29:00,26.6,22.5,30.55,NW,324,3.0,8.0,84,0.00,,OVC OVC///CB,0.00,WUHU216DAVISVP2,2013-11-13 08:29:00,
2013-11-13 03:34:00,26.6,22.5,30.55,West,278,3.0,8.0,84,0.00,,OVC OVC///CB,0.00,WUHU216DAVISVP2,2013-11-13 08:34:00,
2013-11-13 03:39:00,26.6,22.2,30.55,West,278,5.0,8.0,83,0.00,,OVC OVC///CB,0.00,WUHU216DAVISVP2,2013-11-13 08:39:00,
2013-11-13 03:44:00,26.6,22.2,30.54,WNW,302,3.0,8.0,83,0.00,,OVC OVC///CB,0.00,WUHU216DAVISVP2,2013-11-13 08:44:00,
2013-11-13 03:49:00,26.6,22.2,30.54,WNW,283,1.0,8.0,83,0.00,,OVC OVC///CB,0.00,WUHU216DAVISVP2,2013-11-13 08:49:00,
2013-11-13 03:54:00,26.6,22.2,30.54,West,266,1.0,8.0,83,0.00,,OVC OVC///CB,0.00,WUHU216DAVISVP2,2013-11-13 08:54:00,
2013-11-13 03:59:00,26.6,22.2,30.55,WSW,258,0.0,7.0,83,0.00,,OVC OVC///CB,0.00,WUHU216DAVISVP2,2013-11-13 08:59:00,
2013-11-13 04:04:00,26.5,22.1,30.55,WSW,238,2.0,7.0,83,0.00,,OVC OVC///CB,0.00,WUHU216DAVISVP2,2013-11-13 09:04:00,
2013-11-13 04:09:00,26.6,22.2,30.55,WNW,291,2.0,7.0,83,0.00,,OVC OVC///CB,0.00,WUHU216DAVISVP2,2013-11-13 09:09:00,
2013-11-13 04:14:00,26.5,22.1,30.55,West,276,3.0,7.0,83,0.00,,OVC OVC///CB,0.00,WUHU216DAVISVP2,2013-11-13 09:14:00,
2013-11-13 04:19:00,26.5,21.9,30.55,NW,308,2.0,7.0,82,0.00,,OVC OVC///CB,0.00,WUHU216DAVISVP2,2013-11-13 09:19:00,
2013-11-13 04:24:00,26.5,22.1,30.55,WNW,295,2.0,8.0,83,0.00,,OVC OVC///CB,0.00,WUHU216DAVISVP2,2013-11-13 09:24:00,
2013-11-13 04:29:00,26.5,22.1,30.55,SW,232,3.0,8.0,83,0.00,,OVC OVC///CB,0.00,WUHU216DAVISVP2,2013-11-13 09:29:00,
2013-11-13 04:34:00,26.5,22.1,30.55,WNW,284,1.0,8.0,83,0.00,,OVC OVC///CB,0.00,WUHU216DAVISVP2,2013-11-13 09:34:00,
2013-11-13 04:39:00,26.4,22.0,30.55,SW,236,3.0,8.0,83,0.00,,OVC OVC///CB,0.00,WUHU216DAVISVP2,2013-11-13 09:39:00,
2013-11-13 04:44:00,26.4,22.0,30.55,WNW,294,3.0,7.0,83,0.00,,OVC OVC///CB,0.00,WUHU216DAVISVP2,2013-11-13 09:44:00,
2013-11-13 04:49:00,26.3,21.9,30.55,WNW,288,1.0,7.0,83,0.00,,OVC OVC///CB,0.00,WUHU216DAVISVP2,2013-11-13 09:49:00,
2013-11-13 04:54:00,26.3,21.9,30.56,West,259,3.0,7.0,83,0.00,,OVC OVC///CB,0.00,WUHU216DAVISVP2,2013-11-13 09:54:00,
2013-11-13 04:59:00,26.3,22.2,30.56,WNW,291,1.0,7.0,84,0.00,,OVC OVC///CB,0.00,WUHU216DAVISVP2,2013-11-13 09:59:00,
2013-11-13 05:04:00,26.3,22.2,30.56,SSE,162,2.0,6.0,84,0.00,,OVC OVC///CB,0.00,WUHU216DAVISVP2,2013-11-13 10:04:00,
2013-11-13 05:09:00,26.3,22.2,30.56,WNW,286,3.0,6.0,84,0.00,,OVC OVC///CB,0.00,WUHU216DAVISVP2,2013-11-13 10:09:00,
2013-11-13 05:14:00,26.3,21.9,30.56,WSW,239,3.0,6.0,83,0.00,,OVC OVC///CB,0.00,WUHU216DAVISVP2,2013-11-13 10:14:00,
2013-11-13 05:19:00,26.3,21.9,30.56,SW,231,0.0,6.0,83,0.00,,OVC OVC///CB,0.00,WUHU216DAVISVP2,2013-11-13 10:19:00,
2013-11-13 05:24:00,26.3,21.9,30.56,West,261,0.0,6.0,83,0.00,,OVC OVC///CB,0.00,WUHU216DAVISVP2,2013-11-13 10:24:00,
2013-11-13 05:29:00,26.3,22.2,30.57,WSW,251,0.0,7.0,84,0.00,,OVC OVC///CB,0.00,WUHU216DAVISVP2,2013-11-13 10:29:00,
2013-11-13 05:34:00,26.3,22.2,30.57,NW,314,1.0,7.0,84,0.00,,OVC OVC///CB,0.00,WUHU216DAVISVP2,2013-11-13 10:34:00,
2013-11-13 05:39:00,26.3,22.2,30.56,WSW,255,3.0,7.0,84,0.00,,OVC OVC///CB,0.00,WUHU216DAVISVP2,2013-11-13 10:39:00,
2013-11-13 05:44:00,26.3,22.2,30.56,WSW,248,0.0,7.0,84,0.00,,OVC OVC///CB,0.00,WUHU216DAVISVP2,2013-11-13 10:44:00,
2013-11-13 05:49:00,26.3,22.2,30.56,WNW,287,1.0,8.0,84,0.00,,OVC OVC///CB,0.00,WUHU216DAVISVP2,2013-11-13 10:49:00,
2013-11-13 05:54:00,26.2,22.1,30.57,WNW,286,2.0,8.0,84,0.00,,OVC OVC///CB,0.00,WUHU216DAVISVP2,2013-11-13 10:54:00,
2013-11-13 05:59:00,26.2,21.8,30.57,West,269,2.0,8.0,83,0.00,,OVC OVC///CB,0.00,WUHU216DAVISVP2,2013-11-13 10:59:00,
2013-11-13 06:04:00,26.2,22.1,30.57,West,280,2.0,8.0,84,0.00,,OVC OVC///CB,0.00,WUHU216DAVISVP2,2013-11-13 11:04:00,
2013-11-13 06:09:00,26.1,22.0,30.56,WNW,287,3.0,6.0,84,0.00,,OVC OVC///CB,0.00,WUHU216DAVISVP2,2013-11-13 11:09:00,
2013-11-13 06:14:00,26.0,21.6,30.57,WSW,249,7.0,7.0,83,0.00,,OVC OVC///CB,0.00,WUHU216DAVISVP2,2013-11-13 11:14:00,
2013-11-13 06:19:00,25.9,21.5,30.57,West,276,1.0,7.0,83,0.00,,OVC OVC///CB,0.00,WUHU216DAVISVP2,2013-11-13 11:19:00,
2013-11-13 06:23:00,25.9,21.5,30.57,WNW,301,3.0,6.0,83,0.00,,OVC OVC///CB,0.00,WUHU216DAVISVP2,2013-11-13 11:23:00,
2013-11-13 06:28:00,25.9,21.5,30.57,WSW,256,1.0,6.0,83,0.00,,OVC OVC///CB,0.00,WUHU216DAVISVP2,2013-11-13 11:28:00,
2013-11-13 06:33:00,25.9,21.5,30.57,West,264,2.0,6.0,83,0.00,,OVC OVC///CB,0.00,WUHU216DAVISVP2,2013-11-13 11:33:00,
2013-11-13 06:39:00,25.8,21.4,30.56,West,274,2.0,7.0,83,0.00,,OVC OVC///CB,0.00,WUHU216DAVISVP2,2013-11-13 11:39:00,
2013-11-13 06:44:00,25.8,21.4,30.56,WSW,252,2.0,7.0,83,0.00,,OVC OVC///CB,0.00,WUHU216DAVISVP2,2013-11-13 11:44:00,
2013-11-13 06:49:00,25.8,21.4,30.57,SW,231,1.0,7.0,83,0.00,,OVC OVC///CB,0.00,WUHU216DAVISVP2,2013-11-13 11:49:00,
2013-11-13 06:54:00,25.7,21.3,30.57,WSW,239,1.0,7.0,83,0.00,,OVC OVC///CB,0.00,WUHU216DAVISVP2,2013-11-13 11:54:00,
2013-11-13 06:59:00,25.6,21.2,30.57,WSW,240,1.0,6.0,83,0.00,,OVC OVC///CB,0.00,WUHU216DAVISVP2,2013-11-13 11:59:00,
2013-11-13 07:04:00,25.6,21.2,30.57,West,276,1.0,6.0,83,0.00,,OVC OVC///CB,0.00,WUHU216DAVISVP2,2013-11-13 12:04:00,
2013-11-13 07:09:00,25.5,21.2,30.57,SW,235,1.0,6.0,83,0.00,,OVC OVC///CB,0.00,WUHU216DAVISVP2,2013-11-13 12:09:00,
2013-11-13 07:14:00,25.5,21.2,30.57,WSW,238,4.0,5.0,83,0.00,,OVC OVC///CB,0.00,WUHU216DAVISVP2,2013-11-13 12:14:00,
2013-11-13 07:19:00,25.4,21.1,30.57,West,263,3.0,5.0,83,0.00,,OVC OVC///CB,0.00,WUHU216DAVISVP2,2013-11-13 12:19:00,
2013-11-13 07:24:00,25.4,21.1,30.57,WSW,257,5.0,5.0,83,0.00,,OVC OVC///CB,0.00,WUHU216DAVISVP2,2013-11-13 12:24:00,
2013-11-13 07:29:00,25.3,21.0,30.57,WSW,240,1.0,5.0,83,0.00,,OVC OVC///CB,0.00,WUHU216DAVISVP2,2013-11-13 12:29:00,
2013-11-13 07:34:00,25.3,21.0,30.57,West,262,1.0,5.0,83,0.00,,OVC OVC///CB,0.00,WUHU216DAVISVP2,2013-11-13 12:34:00,
2013-11-13 07:39:00,25.2,20.9,30.57,WSW,242,4.0,6.0,83,0.00,,OVC OVC///CB,0.00,WUHU216DAVISVP2,2013-11-13 12:39:00,
2013-11-13 07:44:00,25.2,20.9,30.58,WSW,252,2.0,6.0,83,0.00,,OVC OVC///CB,0.00,WUHU216DAVISVP2,2013-11-13 12:44:00,
2013-11-13 07:49:00,25.1,20.8,30.58,WSW,240,5.0,6.0,83,0.00,,OVC OVC///CB,0.00,WUHU216DAVISVP2,2013-11-13 12:49:00,
2013-11-13 07:54:00,25.1,20.8,30.58,SW,232,1.0,6.0,83,0.00,,OVC OVC///CB,0.00,WUHU216DAVISVP2,2013-11-13 12:54:00,
2013-11-13 07:59:00,25.0,20.9,30.58,WSW,245,0.0,6.0,84,0.00,,OVC OVC///CB,0.00,WUHU216DAVISVP2,2013-11-13 12:59:00,
2013-11-13 08:04:00,24.8,20.7,30.58,West,278,2.0,5.0,84,0.00,,OVC OVC///CB,0.00,WUHU216DAVISVP2,2013-11-13 13:04:00,
2013-11-13 08:09:00,24.7,20.4,30.58,SW,224,5.0,6.0,83,0.00,,OVC OVC///CB,0.00,WUHU216DAVISVP2,2013-11-13 13:09:00,
2013-11-13 08:14:00,24.7,20.4,30.58,WSW,255,0.0,6.0,83,0.00,,OVC OVC///CB,0.00,WUHU216DAVISVP2,2013-11-13 13:14:00,
2013-11-13 08:19:00,24.7,20.4,30.58,West,266,4.0,8.0,83,0.00,,OVC OVC///CB,0.00,WUHU216DAVISVP2,2013-11-13 13:19:00,
2013-11-13 08:24:00,24.7,20.1,30.58,WSW,248,3.0,12.0,82,0.00,,OVC OVC///CB,0.00,WUHU216DAVISVP2,2013-11-13 13:24:00,
2013-11-13 08:29:00,24.8,20.2,30.59,WSW,243,5.0,12.0,82,0.00,,OVC OVC///CB,0.00,WUHU216DAVISVP2,2013-11-13 13:29:00,
2013-11-13 08:34:00,25.0,20.4,30.59,West,262,4.0,11.0,82,0.00,,OVC OVC///CB,0.00,WUHU216DAVISVP2,2013-11-13 13:34:00,
2013-11-13 08:39:00,25.1,20.5,30.59,WSW,243,0.0,11.0,82,0.00,,OVC OVC///CB,0.00,WUHU216DAVISVP2,2013-11-13 13:39:00,
2013-11-13 08:44:00,25.3,20.7,30.59,WSW,248,5.0,8.0,82,0.00,,OVC OVC///CB,0.00,WUHU216DAVISVP2,2013-11-13 13:44:00,
2013-11-13 08:49:00,25.4,20.5,30.59,WNW,284,1.0,8.0,81,0.00,,OVC OVC///CB,0.00,WUHU216DAVISVP2,2013-11-13 13:49:00,
2013-11-13 08:54:00,25.6,20.7,30.59,West,259,5.0,8.0,81,0.00,,OVC OVC///CB,0.00,WUHU216DAVISVP2,2013-11-13 13:54:00,
2013-11-13 08:59:00,25.8,20.9,30.59,WSW,240,0.0,8.0,81,0.00,,OVC OVC///CB,0.00,WUHU216DAVISVP2,2013-11-13 13:59:00,
2013-11-13 09:04:00,26.0,21.1,30.59,West,266,3.0,7.0,81,0.00,,OVC OVC///CB,0.00,WUHU216DAVISVP2,2013-11-13 14:04:00,
2013-11-13 09:09:00,26.2,21.3,30.59,West,281,4.0,9.0,81,0.00,,OVC OVC///CB,0.00,WUHU216DAVISVP2,2013-11-13 14:09:00,
2013-11-13 09:14:00,26.3,21.1,30.59,WSW,251,2.0,9.0,80,0.00,,OVC OVC///CB,0.00,WUHU216DAVISVP2,2013-11-13 14:14:00,
2013-11-13 09:19:00,26.5,21.3,30.59,WNW,299,0.0,9.0,80,0.00,,OVC OVC///CB,0.00,WUHU216DAVISVP2,2013-11-13 14:19:00,
2013-11-13 09:24:00,26.8,21.6,30.59,West,274,4.0,9.0,80,0.00,,OVC OVC///CB,0.00,WUHU216DAVISVP2,2013-11-13 14:24:00,
2013-11-13 09:29:00,27.1,21.9,30.59,West,259,8.0,10.0,80,0.00,,OVC OVC///CB,0.00,WUHU216DAVISVP2,2013-11-13 14:29:00,
2013-11-13 09:34:00,27.3,21.8,30.59,West,281,3.0,10.0,79,0.00,,OVC OVC///CB,0.00,WUHU216DAVISVP2,2013-11-13 14:34:00,
2013-11-13 09:39:00,27.5,21.7,30.59,West,274,6.0,10.0,78,0.00,,OVC OVC///CB,0.00,WUHU216DAVISVP2,2013-11-13 14:39:00,
2013-11-13 09:44:00,27.7,21.6,30.59,WNW,301,4.0,10.0,77,0.00,,OVC OVC///CB,0.00,WUHU216DAVISVP2,2013-11-13 14:44:00,
2013-11-13 09:49:00,28.0,22.2,30.59,West,276,3.0,9.0,78,0.00,,OVC OVC///CB,0.00,WUHU216DAVISVP2,2013-11-13 14:49:00,
2013-11-13 09:54:00,28.5,22.4,30.59,WNW,288,2.0,9.0,77,0.00,,OVC OVC///CB,0.00,WUHU216DAVISVP2,2013-11-13 14:54:00,
2013-11-13 09:59:00,28.8,22.6,30.59,WSW,257,5.0,10.0,77,0.00,,OVC OVC///CB,0.00,WUHU216DAVISVP2,2013-11-13 14:59:00,
2013-11-13 10:04:00,28.9,22.4,30.59,West,262,3.0,10.0,76,0.00,,OVC OVC///CB,0.00,WUHU216DAVISVP2,2013-11-13 15:04:00,
2013-11-13 10:09:00,29.0,22.2,30.58,WSW,246,3.0,10.0,75,0.00,,OVC OVC///CB,0.00,WUHU216DAVISVP2,2013-11-13 15:09:00,
2013-11-13 10:14:00,29.3,22.8,30.58,West,270,1.0,10.0,76,0.00,,OVC OVC///CB,0.00,WUHU216DAVISVP2,2013-11-13 15:14:00,
2013-11-13 10:19:00,29.5,22.4,30.58,SW,215,3.0,10.0,74,0.00,,OVC OVC///CB,0.00,WUHU216DAVISVP2,2013-11-13 15:19:00,
2013-11-13 10:24:00,29.4,22.0,30.58,WSW,248,4.0,11.0,73,0.00,,OVC OVC///CB,0.00,WUHU216DAVISVP2,2013-11-13 15:24:00,
2013-11-13 10:29:00,29.5,22.1,30.58,West,272,5.0,11.0,73,0.00,,OVC OVC///CB,0.00,WUHU216DAVISVP2,2013-11-13 15:29:00,
2013-11-13 10:34:00,29.7,22.6,30.58,WSW,249,2.0,12.0,74,0.00,,OVC OVC///CB,0.00,WUHU216DAVISVP2,2013-11-13 15:34:00,
2013-11-13 10:39:00,30.0,22.6,30.58,WSW,243,2.0,12.0,73,0.00,,OVC OVC///CB,0.00,WUHU216DAVISVP2,2013-11-13 15:39:00,
2013-11-13 10:44:00,30.3,22.5,30.58,WSW,253,7.0,12.0,72,0.00,,OVC OVC///CB,0.00,WUHU216DAVISVP2,2013-11-13 15:44:00,
2013-11-13 10:49:00,30.2,22.4,30.58,SSW,200,1.0,12.0,72,0.00,,OVC OVC///CB,0.00,WUHU216DAVISVP2,2013-11-13 15:49:00,
2013-11-13 10:54:00,30.7,23.2,30.58,WNW,283,4.0,10.0,73,0.00,,OVC OVC///CB,0.00,WUHU216DAVISVP2,2013-11-13 15:54:00,
2013-11-13 10:59:00,30.8,23.0,30.58,West,277,4.0,9.0,72,0.00,,OVC OVC///CB,0.00,WUHU216DAVISVP2,2013-11-13 15:59:00,
2013-11-13 11:04:00,31.1,23.3,30.58,SW,226,9.0,9.0,72,0.00,,OVC OVC///CB,0.00,WUHU216DAVISVP2,2013-11-13 16:04:00,
2013-11-13 11:09:00,30.9,23.1,30.58,West,266,5.0,12.0,72,0.00,,OVC OVC///CB,0.00,WUHU216DAVISVP2,2013-11-13 16:09:00,
2013-11-13 11:14:00,31.1,23.3,30.57,West,259,4.0,12.0,72,0.00,,OVC OVC///CB,0.00,WUHU216DAVISVP2,2013-11-13 16:14:00,
2013-11-13 11:19:00,31.1,23.6,30.58,South,190,4.0,14.0,73,0.00,,OVC OVC///CB,0.00,WUHU216DAVISVP2,2013-11-13 16:19:00,
2013-11-13 11:24:00,31.1,23.3,30.57,WSW,241,11.0,14.0,72,0.00,,OVC OVC///CB,0.00,WUHU216DAVISVP2,2013-11-13 16:24:00,
2013-11-13 11:29:00,31.2,23.4,30.56,WSW,239,3.0,14.0,72,0.00,,OVC OVC///CB,0.00,WUHU216DAVISVP2,2013-11-13 16:29:00,
2013-11-13 11:34:00,31.6,24.1,30.56,SW,232,2.0,14.0,73,0.00,,OVC OVC///CB,0.00,WUHU216DAVISVP2,2013-11-13 16:34:00,
2013-11-13 11:39:00,31.9,24.1,30.56,West,276,3.0,12.0,72,0.00,,OVC OVC///CB,0.00,WUHU216DAVISVP2,2013-11-13 16:39:00,
2013-11-13 11:44:00,32.1,23.9,30.56,West,274,3.0,13.0,71,0.00,,OVC OVC///CB,0.00,WUHU216DAVISVP2,2013-11-13 16:44:00,
2013-11-13 11:49:00,32.0,23.9,30.56,WSW,251,2.0,13.0,71,0.00,,OVC OVC///CB,0.00,WUHU216DAVISVP2,2013-11-13 16:49:00,
2013-11-13 11:53:00,32.1,24.3,30.55,WNW,283,7.0,13.0,72,0.00,,OVC OVC///CB,0.00,WUHU216DAVISVP2,2013-11-13 16:53:00,
2013-11-13 11:58:00,32.2,24.0,30.55,WNW,293,6.0,13.0,71,0.00,,OVC OVC///CB,0.00,WUHU216DAVISVP2,2013-11-13 16:58:00,
2013-11-13 12:03:00,32.1,24.3,30.55,SW,215,10.0,14.0,72,0.00,,OVC OVC///CB,0.00,WUHU216DAVISVP2,2013-11-13 17:03:00,
2013-11-13 12:08:00,32.3,24.5,30.55,WSW,245,6.0,14.0,72,0.00,,OVC OVC///CB,0.00,WUHU216DAVISVP2,2013-11-13 17:08:00,
2013-11-13 12:13:00,32.4,24.2,30.55,WSW,248,8.0,14.0,71,0.00,,OVC OVC///CB,0.00,WUHU216DAVISVP2,2013-11-13 17:13:00,
2013-11-13 12:18:00,32.7,24.5,30.55,SW,231,5.0,14.0,71,0.00,,OVC OVC///CB,0.00,WUHU216DAVISVP2,2013-11-13 17:18:00,
2013-11-13 12:23:00,32.8,25.0,30.54,West,281,3.0,13.0,72,0.00,,OVC OVC///CB,0.00,WUHU216DAVISVP2,2013-11-13 17:23:00,
2013-11-13 12:28:00,33.0,25.1,30.54,SW,229,2.0,13.0,72,0.00,,OVC OVC///CB,0.00,WUHU216DAVISVP2,2013-11-13 17:28:00,
2013-11-13 12:33:00,33.5,25.0,30.53,SW,234,5.0,13.0,70,0.00,,OVC OVC///CB,0.00,WUHU216DAVISVP2,2013-11-13 17:33:00,
2013-11-13 12:38:00,33.2,24.7,30.53,West,278,6.0,13.0,70,0.00,,OVC OVC///CB,0.00,WUHU216DAVISVP2,2013-11-13 17:38:00,
2013-11-13 12:43:00,33.1,24.2,30.53,WNW,283,11.0,12.0,69,0.00,,OVC OVC///CB,0.00,WUHU216DAVISVP2,2013-11-13 17:43:00,
2013-11-13 12:48:00,33.2,24.7,30.53,WNW,283,3.0,12.0,70,0.00,,OVC OVC///CB,0.00,WUHU216DAVISVP2,2013-11-13 17:48:00,
2013-11-13 12:53:00,33.5,25.0,30.53,WSW,256,3.0,13.0,70,0.00,,OVC OVC///CB,0.00,WUHU216DAVISVP2,2013-11-13 17:53:00,
2013-11-13 12:58:00,33.7,25.2,30.53,West,262,5.0,13.0,70,0.00,,OVC OVC///CB,0.00,WUHU216DAVISVP2,2013-11-13 17:58:00,
2013-11-13 13:03:00,33.6,24.7,30.52,SW,219,7.0,15.0,69,0.00,,OVC OVC///CB,0.00,WUHU216DAVISVP2,2013-11-13 18:03:00,
2013-11-13 13:08:00,33.8,24.6,30.52,WSW,248,7.0,15.0,68,0.00,,OVC OVC///CB,0.00,WUHU216DAVISVP2,2013-11-13 18:08:00,
2013-11-13 13:13:00,34.2,24.9,30.52,WSW,250,6.0,14.0,68,0.00,,OVC OVC///CB,0.00,WUHU216DAVISVP2,2013-11-13 18:13:00,
2013-11-13 13:18:00,34.2,25.3,30.52,SSW,204,5.0,14.0,69,0.00,,OVC OVC///CB,0.00,WUHU216DAVISVP2,2013-11-13 18:18:00,
2013-11-13 13:23:00,34.4,25.5,30.52,WSW,248,9.0,15.0,69,0.01,,OVC OVC///CB,0.01,WUHU216DAVISVP2,2013-11-13 18:23:00,
2013-11-13 13:28:00,34.4,25.1,30.52,SSW,203,7.0,15.0,68,0.01,,OVC OVC///CB,0.01,WUHU216DAVISVP2,2013-11-13 18:28:00,
2013-11-13 13:33:00,34.5,25.6,30.52,SW,232,7.0,14.0,69,0.01,,OVC OVC///CB,0.01,WUHU216DAVISVP2,2013-11-13 18:33:00,
2013-11-13 13:38:00,34.9,26.0,30.52,WSW,246,7.0,14.0,69,0.01,,OVC OVC///CB,0.01,WUHU216DAVISVP2,2013-11-13 18:38:00,
2013-11-13 13:43:00,34.9,25.3,30.51,West,277,3.0,12.0,67,0.01,,OVC OVC///CB,0.01,WUHU216DAVISVP2,2013-11-13 18:43:00,
2013-11-13 13:48:00,35.1,25.1,30.51,West,266,10.0,16.0,66,0.01,,OVC OVC///CB,0.01,WUHU216DAVISVP2,2013-11-13 18:48:00,
2013-11-13 13:54:00,35.2,25.2,30.51,WSW,243,4.0,16.0,66,0.01,,OVC OVC///CB,0.01,WUHU216DAVISVP2,2013-11-13 18:54:00,
2013-11-13 13:59:00,35.3,25.3,30.51,West,271,3.0,16.0,66,0.01,,OVC OVC///CB,0.01,WUHU216DAVISVP2,2013-11-13 18:59:00,
2013-11-13 14:04:00,35.3,24.6,30.50,WSW,257,2.0,16.0,64,0.01,,OVC OVC///CB,0.01,WUHU216DAVISVP2,2013-11-13 19:04:00,
2013-11-13 14:09:00,35.6,25.9,30.50,WNW,294,3.0,13.0,67,0.01,,OVC OVC///CB,0.01,WUHU216DAVISVP2,2013-11-13 19:09:00,
2013-11-13 14:14:00,36.0,26.0,30.50,WSW,241,5.0,13.0,66,0.01,,OVC OVC///CB,0.01,WUHU216DAVISVP2,2013-11-13 19:14:00,
2013-11-13 14:19:00,35.9,25.1,30.50,WSW,245,6.0,16.0,64,0.01,,OVC OVC///CB,0.01,WUHU216DAVISVP2,2013-11-13 19:19:00,
2013-11-13 14:24:00,35.8,25.0,30.49,WSW,244,3.0,16.0,64,0.00,,OVC OVC///CB,0.01,WUHU216DAVISVP2,2013-11-13 19:24:00,
2013-11-13 14:29:00,36.3,25.1,30.49,WNW,297,4.0,15.0,63,0.00,,OVC OVC///CB,0.01,WUHU216DAVISVP2,2013-11-13 19:29:00,
2013-11-13 14:34:00,36.6,24.6,30.49,WSW,238,3.0,15.0,61,0.01,,OVC OVC///CB,0.02,WUHU216DAVISVP2,2013-11-13 19:34:00,
2013-11-13 14:39:00,36.6,24.2,30.49,WSW,252,6.0,10.0,60,0.01,,OVC OVC///CB,0.02,WUHU216DAVISVP2,2013-11-13 19:39:00,
2013-11-13 14:44:00,36.7,24.3,30.49,SSW,210,2.0,10.0,60,0.01,,OVC OVC///CB,0.02,WUHU216DAVISVP2,2013-11-13 19:44:00,
2013-11-13 14:49:00,36.7,24.3,30.49,WSW,248,8.0,13.0,60,0.01,,OVC OVC///CB,0.02,WUHU216DAVISVP2,2013-11-13 19:49:00,
2013-11-13 14:54:00,36.8,25.2,30.49,SSW,213,6.0,13.0,62,0.01,,OVC OVC///CB,0.02,WUHU216DAVISVP2,2013-11-13 19:54:00,
2013-11-13 14:59:00,36.8,25.2,30.49,WSW,255,6.0,12.0,62,0.01,,OVC OVC///CB,0.02,WUHU216DAVISVP2,2013-11-13 19:59:00,
2013-11-13 15:04:00,36.9,25.3,30.48,West,266,3.0,12.0,62,0.01,,OVC OVC///CB,0.02,WUHU216DAVISVP2,2013-11-13 20:04:00,
2013-11-13 15:09:00,37.1,25.5,30.48,WSW,254,5.0,12.0,62,0.01,,OVC OVC///CB,0.02,WUHU216DAVISVP2,2013-11-13 20:09:00,
2013-11-13 15:14:00,36.8,24.8,30.48,WSW,256,4.0,14.0,61,0.01,,OVC OVC///CB,0.02,WUHU216DAVISVP2,2013-11-13 20:14:00,
2013-11-13 15:19:00,36.8,25.6,30.48,SSW,212,10.0,14.0,63,0.01,,OVC OVC///CB,0.02,WUHU216DAVISVP2,2013-11-13 20:19:00,
2013-11-13 15:24:00,36.5,24.5,30.48,WSW,238,7.0,14.0,61,0.01,,OVC OVC///CB,0.02,WUHU216DAVISVP2,2013-11-13 20:24:00,
2013-11-13 15:29:00,36.6,25.0,30.47,WSW,246,2.0,17.0,62,0.01,,OVC OVC///CB,0.02,WUHU216DAVISVP2,2013-11-13 20:29:00,
2013-11-13 15:34:00,36.5,23.7,30.47,WSW,242,5.0,17.0,59,0.00,,OVC OVC///CB,0.02,WUHU216DAVISVP2,2013-11-13 20:34:00,
2013-11-13 15:39:00,36.5,24.1,30.47,WSW,252,3.0,16.0,60,0.00,,OVC OVC///CB,0.02,WUHU216DAVISVP2,2013-11-13 20:39:00,
2013-11-13 15:44:00,36.4,24.4,30.47,WSW,252,8.0,16.0,61,0.00,,OVC OVC///CB,0.02,WUHU216DAVISVP2,2013-11-13 20:44:00,
2013-11-13 15:49:00,36.5,24.9,30.47,SW,231,7.0,14.0,62,0.00,,OVC OVC///CB,0.02,WUHU216DAVISVP2,2013-11-13 20:49:00,
2013-11-13 15:54:00,36.6,24.6,30.47,SW,224,5.0,13.0,61,0.00,,OVC OVC///CB,0.02,WUHU216DAVISVP2,2013-11-13 20:54:00,
2013-11-13 15:59:00,36.5,24.9,30.47,WSW,245,6.0,13.0,62,0.00,,OVC OVC///CB,0.02,WUHU216DAVISVP2,2013-11-13 20:59:00,
2013-11-13 16:04:00,36.4,24.4,30.47,SW,232,6.0,13.0,61,0.00,,OVC OVC///CB,0.02,WUHU216DAVISVP2,2013-11-13 21:04:00,
2013-11-13 16:09:00,36.1,23.8,30.47,WSW,242,6.0,14.0,60,0.00,,OVC OVC///CB,0.02,WUHU216DAVISVP2,2013-11-13 21:09:00,
2013-11-13 16:14:00,36.0,23.3,30.47,WSW,241,13.0,14.0,59,0.00,,OVC OVC///CB,0.02,WUHU216DAVISVP2,2013-11-13 21:14:00,
2013-11-13 16:19:00,35.9,23.6,30.47,West,259,2.0,14.0,60,0.00,,OVC OVC///CB,0.02,WUHU216DAVISVP2,2013-11-13 21:19:00,
2013-11-13 16:24:00,35.8,23.5,30.47,WSW,253,2.0,14.0,60,0.00,,OVC OVC///CB,0.02,WUHU216DAVISVP2,2013-11-13 21:24:00,
2013-11-13 16:29:00,35.7,23.4,30.47,WSW,245,8.0,13.0,60,0.00,,OVC OVC///CB,0.02,WUHU216DAVISVP2,2013-11-13 21:29:00,
2013-11-13 16:34:00,35.6,23.3,30.46,West,259,3.0,11.0,60,0.00,,OVC OVC///CB,0.02,WUHU216DAVISVP2,2013-11-13 21:34:00,
2013-11-13 16:39:00,35.5,22.8,30.46,WSW,251,6.0,12.0,59,0.00,,OVC OVC///CB,0.02,WUHU216DAVISVP2,2013-11-13 21:39:00,
2013-11-13 16:44:00,35.5,23.2,30.46,SW,231,4.0,12.0,60,0.00,,OVC OVC///CB,0.02,WUHU216DAVISVP2,2013-11-13 21:44:00,
2013-11-13 16:49:00,35.5,22.8,30.46,WSW,255,4.0,11.0,59,0.00,,OVC OVC///CB,0.02,WUHU216DAVISVP2,2013-11-13 21:49:00,
2013-11-13 16:54:00,35.4,22.7,30.46,WSW,252,1.0,11.0,59,0.00,,OVC OVC///CB,0.02,WUHU216DAVISVP2,2013-11-13 21:54:00,
2013-11-13 16:59:00,35.1,22.8,30.46,SW,225,4.0,10.0,60,0.00,,OVC OVC///CB,0.02,WUHU216DAVISVP2,2013-11-13 21:59:00,
2013-11-13 17:04:00,34.8,22.9,30.46,SW,217,5.0,10.0,61,0.00,,OVC OVC///CB,0.02,WUHU216DAVISVP2,2013-11-13 22:04:00,
2013-11-13 17:09:00,34.6,22.7,30.46,West,263,4.0,10.0,61,0.00,,OVC OVC///CB,0.02,WUHU216DAVISVP2,2013-11-13 22:09:00,
2013-11-13 17:14:00,34.4,22.9,30.45,WSW,243,4.0,11.0,62,0.00,,OVC OVC///CB,0.02,WUHU216DAVISVP2,2013-11-13 22:14:00,
2013-11-13 17:19:00,34.2,22.7,30.45,WSW,255,4.0,11.0,62,0.00,,OVC OVC///CB,0.02,WUHU216DAVISVP2,2013-11-13 22:19:00,
2013-11-13 17:24:00,34.1,22.3,30.45,SSW,195,2.0,10.0,61,0.00,,OVC OVC///CB,0.02,WUHU216DAVISVP2,2013-11-13 22:24:00,
2013-11-13 17:29:00,33.9,22.5,30.45,SW,232,2.0,10.0,62,0.00,,OVC OVC///CB,0.02,WUHU216DAVISVP2,2013-11-13 22:29:00,
2013-11-13 17:34:00,33.8,22.0,30.45,SSW,208,3.0,9.0,61,0.00,,OVC OVC///CB,0.02,WUHU216DAVISVP2,2013-11-13 22:34:00,
2013-11-13 17:39:00,33.6,22.2,30.45,SW,225,3.0,9.0,62,0.00,,OVC OVC///CB,0.02,WUHU216DAVISVP2,2013-11-13 22:39:00,
2013-11-13 17:44:00,33.6,22.2,30.45,SW,215,4.0,8.0,62,0.00,,OVC OVC///CB,0.02,WUHU216DAVISVP2,2013-11-13 22:44:00,
2013-11-13 17:49:00,33.5,22.1,30.45,SW,215,3.0,8.0,62,0.00,,OVC OVC///CB,0.02,WUHU216DAVISVP2,2013-11-13 22:49:00,
2013-11-13 17:54:00,33.4,22.0,30.45,WSW,252,2.0,9.0,62,0.00,,OVC OVC///CB,0.02,WUHU216DAVISVP2,2013-11-13 22:54:00,
2013-11-13 17:59:00,33.2,21.8,30.45,SSW,207,1.0,9.0,62,0.00,,OVC OVC///CB,0.02,WUHU216DAVISVP2,2013-11-13 22:59:00,
2013-11-13 18:04:00,33.1,22.1,30.45,SW,224,2.0,8.0,63,0.00,,OVC OVC///CB,0.02,WUHU216DAVISVP2,2013-11-13 23:04:00,
2013-11-13 18:09:00,32.8,22.2,30.45,WSW,238,2.0,8.0,64,0.00,,OVC OVC///CB,0.02,WUHU216DAVISVP2,2013-11-13 23:09:00,
2013-11-13 18:14:00,32.6,22.3,30.45,SSW,205,1.0,6.0,65,0.00,,OVC OVC///CB,0.02,WUHU216DAVISVP2,2013-11-13 23:14:00,
2013-11-13 18:19:00,32.5,23.0,30.45,SW,226,2.0,7.0,67,0.00,,OVC OVC///CB,0.02,WUHU216DAVISVP2,2013-11-13 23:19:00,
2013-11-13 18:24:00,32.4,23.2,30.45,SSW,210,4.0,7.0,68,0.00,,OVC OVC///CB,0.02,WUHU216DAVISVP2,2013-11-13 23:24:00,
2013-11-13 18:29:00,32.4,22.9,30.45,SW,218,5.0,7.0,67,0.00,,OVC OVC///CB,0.02,WUHU216DAVISVP2,2013-11-13 23:29:00,
2013-11-13 18:34:00,32.5,23.0,30.45,SSW,205,4.0,11.0,67,0.00,,OVC OVC///CB,0.02,WUHU216DAVISVP2,2013-11-13 23:34:00,
2013-11-13 18:39:00,32.3,22.8,30.45,SW,215,1.0,11.0,67,0.00,,OVC OVC///CB,0.02,WUHU216DAVISVP2,2013-11-13 23:39:00,
2013-11-13 18:44:00,32.3,22.4,30.44,SSW,211,3.0,10.0,66,0.00,,OVC OVC///CB,0.02,WUHU216DAVISVP2,2013-11-13 23:44:00,
2013-11-13 18:49:00,32.2,22.3,30.44,SSW,202,3.0,10.0,66,0.00,,OVC OVC///CB,0.02,WUHU216DAVISVP2,2013-11-13 23:49:00,
2013-11-13 18:54:00,32.1,22.2,30.44,SSW,199,7.0,13.0,66,0.00,,OVC OVC///CB,0.02,WUHU216DAVISVP2,2013-11-13 23:54:00,
2013-11-13 18:59:00,32.0,22.1,30.44,South,173,3.0,13.0,66,0.00,,OVC OVC///CB,0.02,WUHU216DAVISVP2,2013-11-13 23:59:00,
2013-11-13 19:04:00,31.9,22.0,30.44,WSW,248,6.0,13.0,66,0.00,,OVC OVC///CB,0.02,WUHU216DAVISVP2,2013-11-14 00:04:00,
2013-11-13 19:09:00,31.7,22.2,30.44,SSW,211,2.0,13.0,67,0.00,,OVC OVC///CB,0.02,WUHU216DAVISVP2,2013-11-14 00:09:00,
2013-11-13 19:14:00,31.6,22.1,30.44,SW,232,5.0,10.0,67,0.00,,OVC OVC///CB,0.02,WUHU216DAVISVP2,2013-11-14 00:14:00,
2013-11-13 19:19:00,31.5,22.0,30.44,SSW,200,4.0,11.0,67,0.00,,OVC OVC///CB,0.02,WUHU216DAVISVP2,2013-11-14 00:19:00,
2013-11-13 19:24:00,31.5,22.0,30.43,SSW,211,6.0,11.0,67,0.00,,OVC OVC///CB,0.02,WUHU216DAVISVP2,2013-11-14 00:24:00,
2013-11-13 19:29:00,31.5,22.0,30.43,SSE,163,2.0,11.0,67,0.00,,OVC OVC///CB,0.02,WUHU216DAVISVP2,2013-11-14 00:29:00,
2013-11-13 19:34:00,31.5,22.4,30.43,WSW,250,3.0,11.0,68,0.00,,OVC OVC///CB,0.02,WUHU216DAVISVP2,2013-11-14 00:34:00,
2013-11-13 19:39:00,31.5,22.4,30.43,WSW,240,3.0,12.0,68,0.00,,OVC OVC///CB,0.02,WUHU216DAVISVP2,2013-11-14 00:39:00,
2013-11-13 19:44:00,31.5,22.4,30.43,SW,232,12.0,14.0,68,0.00,,OVC OVC///CB,0.02,WUHU216DAVISVP2,2013-11-14 00:44:00,
2013-11-13 19:49:00,31.5,22.4,30.43,WSW,238,3.0,14.0,68,0.00,,OVC OVC///CB,0.02,WUHU216DAVISVP2,2013-11-14 00:49:00,
2013-11-13 19:54:00,31.5,22.4,30.43,WSW,240,3.0,14.0,68,0.00,,OVC OVC///CB,0.02,WUHU216DAVISVP2,2013-11-14 00:54:00,
2013-11-13 19:59:00,31.5,22.0,30.43,WSW,243,3.0,14.0,67,0.00,,OVC OVC///CB,0.02,WUHU216DAVISVP2,2013-11-14 00:59:00,
2013-11-13 20:04:00,31.5,22.0,30.42,WSW,256,4.0,13.0,67,0.00,,OVC OVC///CB,0.02,WUHU216DAVISVP2,2013-11-14 01:04:00,
2013-11-13 20:09:00,31.5,22.0,30.42,WSW,238,7.0,13.0,67,0.00,,OVC OVC///CB,0.02,WUHU216DAVISVP2,2013-11-14 01:09:00,
2013-11-13 20:14:00,31.5,22.0,30.42,SSW,211,3.0,13.0,67,0.00,,OVC OVC///CB,0.02,WUHU216DAVISVP2,2013-11-14 01:14:00,
2013-11-13 20:19:00,31.6,22.1,30.42,SSW,207,5.0,13.0,67,0.00,,OVC OVC///CB,0.02,WUHU216DAVISVP2,2013-11-14 01:19:00,
2013-11-13 20:24:00,31.6,22.1,30.42,SW,221,6.0,12.0,67,0.00,,OVC OVC///CB,0.02,WUHU216DAVISVP2,2013-11-14 01:24:00,
2013-11-13 20:29:00,31.5,22.4,30.42,SSW,205,8.0,12.0,68,0.00,,OVC OVC///CB,0.02,WUHU216DAVISVP2,2013-11-14 01:29:00,
2013-11-13 20:34:00,31.5,22.4,30.42,West,262,5.0,11.0,68,0.00,,OVC OVC///CB,0.02,WUHU216DAVISVP2,2013-11-14 01:34:00,
2013-11-13 20:39:00,31.5,22.4,30.42,SW,225,3.0,11.0,68,0.00,,OVC OVC///CB,0.02,WUHU216DAVISVP2,2013-11-14 01:39:00,
2013-11-13 20:44:00,31.4,22.3,30.41,SW,219,3.0,11.0,68,0.00,,OVC OVC///CB,0.02,WUHU216DAVISVP2,2013-11-14 01:44:00,
2013-11-13 20:49:00,31.4,22.3,30.41,SW,222,5.0,10.0,68,0.00,,OVC OVC///CB,0.02,WUHU216DAVISVP2,2013-11-14 01:49:00,
2013-11-13 20:54:00,31.4,22.3,30.41,WSW,242,5.0,11.0,68,0.00,,OVC OVC///CB,0.02,WUHU216DAVISVP2,2013-11-14 01:54:00,
2013-11-13 20:59:00,31.4,22.3,30.41,SSW,208,4.0,11.0,68,0.00,,OVC OVC///CB,0.02,WUHU216DAVISVP2,2013-11-14 01:59:00,
2013-11-13 21:04:00,31.4,22.3,30.41,WSW,240,12.0,12.0,68,0.00,,OVC OVC///CB,0.02,WUHU216DAVISVP2,2013-11-14 02:04:00,
2013-11-13 21:09:00,31.5,22.0,30.41,SW,224,7.0,12.0,67,0.00,,OVC OVC///CB,0.02,WUHU216DAVISVP2,2013-11-14 02:09:00,
2013-11-13 21:14:00,31.4,21.9,30.40,WNW,288,6.0,12.0,67,0.00,,OVC OVC///CB,0.02,WUHU216DAVISVP2,2013-11-14 02:14:00,
2013-11-13 21:19:00,31.4,22.3,30.40,WSW,243,7.0,12.0,68,0.00,,OVC OVC///CB,0.02,WUHU216DAVISVP2,2013-11-14 02:19:00,
2013-11-13 21:24:00,31.5,22.0,30.40,SW,222,2.0,14.0,67,0.00,,OVC OVC///CB,0.02,WUHU216DAVISVP2,2013-11-14 02:24:00,
2013-11-13 21:29:00,31.5,22.0,30.40,SW,235,6.0,14.0,67,0.00,,OVC OVC///CB,0.02,WUHU216DAVISVP2,2013-11-14 02:29:00,
2013-11-13 21:34:00,31.4,21.9,30.40,West,259,6.0,13.0,67,0.00,,OVC OVC///CB,0.02,WUHU216DAVISVP2,2013-11-14 02:34:00,
2013-11-13 21:39:00,31.4,21.9,30.40,WSW,248,7.0,13.0,67,0.00,,OVC OVC///CB,0.02,WUHU216DAVISVP2,2013-11-14 02:39:00,
2013-11-13 21:44:00,31.4,21.9,30.40,SW,232,2.0,11.0,67,0.00,,OVC OVC///CB,0.02,WUHU216DAVISVP2,2013-11-14 02:44:00,
2013-11-13 21:49:00,31.3,22.2,30.40,SW,232,6.0,11.0,68,0.00,,OVC OVC///CB,0.02,WUHU216DAVISVP2,2013-11-14 02:49:00,
2013-11-13 21:54:00,31.2,22.1,30.40,SW,231,4.0,11.0,68,0.00,,OVC OVC///CB,0.02,WUHU216DAVISVP2,2013-11-14 02:54:00,
2013-11-13 21:59:00,31.2,22.1,30.40,SW,226,8.0,11.0,68,0.00,,OVC OVC///CB,0.02,WUHU216DAVISVP2,2013-11-14 02:59:00,
2013-11-13 22:04:00,31.2,22.1,30.40,SW,222,6.0,11.0,68,0.00,,OVC OVC///CB,0.02,WUHU216DAVISVP2,2013-11-14 03:04:00,
2013-11-13 22:09:00,31.1,21.6,30.40,SW,231,7.0,11.0,67,0.00,,OVC OVC///CB,0.02,WUHU216DAVISVP2,2013-11-14 03:09:00,
2013-11-13 22:14:00,31.0,21.9,30.40,SW,226,3.0,10.0,68,0.00,,OVC OVC///CB,0.02,WUHU216DAVISVP2,2013-11-14 03:14:00,
2013-11-13 22:19:00,31.0,21.9,30.40,SSW,212,5.0,10.0,68,0.00,,OVC OVC///CB,0.02,WUHU216DAVISVP2,2013-11-14 03:19:00,
2013-11-13 22:24:00,31.0,21.9,30.39,SSW,212,4.0,10.0,68,0.00,,OVC OVC///CB,0.02,WUHU216DAVISVP2,2013-11-14 03:24:00,
2013-11-13 22:29:00,31.0,21.9,30.39,South,190,2.0,11.0,68,0.00,,OVC OVC///CB,0.02,WUHU216DAVISVP2,2013-11-14 03:29:00,
2013-11-13 22:34:00,31.0,21.9,30.39,SW,231,2.0,11.0,68,0.00,,OVC OVC///CB,0.02,WUHU216DAVISVP2,2013-11-14 03:34:00,
2013-11-13 22:39:00,30.8,21.7,30.39,WSW,248,3.0,11.0,68,0.00,,OVC OVC///CB,0.02,WUHU216DAVISVP2,2013-11-14 03:39:00,
2013-11-13 22:44:00,30.8,21.7,30.39,WSW,240,4.0,10.0,68,0.00,,OVC OVC///CB,0.02,WUHU216DAVISVP2,2013-11-14 03:44:00,
2013-11-13 22:49:00,30.9,21.4,30.39,South,190,6.0,12.0,67,0.00,,OVC OVC///CB,0.02,WUHU216DAVISVP2,2013-11-14 03:49:00,
2013-11-13 22:54:00,30.8,21.7,30.39,South,191,5.0,12.0,68,0.00,,OVC OVC///CB,0.02,WUHU216DAVISVP2,2013-11-14 03:54:00,
2013-11-13 22:59:00,30.9,21.4,30.38,SW,228,7.0,11.0,67,0.00,,OVC OVC///CB,0.02,WUHU216DAVISVP2,2013-11-14 03:59:00,
2013-11-13 23:04:00,30.9,21.4,30.38,SSW,203,5.0,13.0,67,0.00,,OVC OVC///CB,0.02,WUHU216DAVISVP2,2013-11-14 04:04:00,
2013-11-13 23:09:00,30.8,21.3,30.38,South,188,1.0,13.0,67,0.00,,OVC OVC///CB,0.02,WUHU216DAVISVP2,2013-11-14 04:09:00,
2013-11-13 23:14:00,30.8,21.3,30.38,WSW,249,9.0,12.0,67,0.00,,OVC OVC///CB,0.02,WUHU216DAVISVP2,2013-11-14 04:14:00,
2013-11-13 23:19:00,30.8,21.3,30.38,SSW,197,2.0,12.0,67,0.00,,OVC OVC///CB,0.02,WUHU216DAVISVP2,2013-11-14 04:19:00,
2013-11-13 23:24:00,30.8,21.3,30.37,WSW,247,7.0,12.0,67,0.00,,OVC OVC///CB,0.02,WUHU216DAVISVP2,2013-11-14 04:24:00,
2013-11-13 23:29:00,30.8,21.3,30.38,SW,224,5.0,12.0,67,0.00,,OVC OVC///CB,0.02,WUHU216DAVISVP2,2013-11-14 04:29:00,
2013-11-13 23:34:00,30.8,21.7,30.37,SSW,205,5.0,12.0,68,0.00,,OVC OVC///CB,0.02,WUHU216DAVISVP2,2013-11-14 04:34:00,
2013-11-13 23:39:00,30.7,21.6,30.37,SSW,203,5.0,12.0,68,0.00,,OVC OVC///CB,0.02,WUHU216DAVISVP2,2013-11-14 04:39:00,
2013-11-13 23:44:00,30.6,21.5,30.37,SW,232,4.0,11.0,68,0.00,,OVC OVC///CB,0.02,WUHU216DAVISVP2,2013-11-14 04:44:00,
2013-11-13 23:49:00,30.6,21.1,30.37,SW,224,3.0,11.0,67,0.00,,OVC OVC///CB,0.02,WUHU216DAVISVP2,2013-11-14 04:49:00,
2013-11-13 23:54:00,30.6,21.1,30.36,South,181,4.0,13.0,67,0.00,,OVC OVC///CB,0.02,WUHU216DAVISVP2,2013-11-14 04:54:00,
2013-11-13 23:59:00,30.5,21.4,30.36,SW,226,6.0,13.0,68,0.00,,OVC OVC///CB,0.02,WUHU216DAVISVP2,2013-11-14 04:59:00,